Location: Newark
(51.0000°N, 11.4100°E)
Time: 06:58:31
(UTC+00:00)

NUDT-PHONESAT - Visible Passes

Search period start: 09 December 2019 00:00
Search period end: 19 December 2019 00:00
Orbit: 488 x 503 km, 97.4° (Epoch: 09 December)

Date Brightness Start Highest point End Pass type
(mag) Time Alt. Az. Time Alt. Az. Time Alt. Az.
09 Dec ? 05:28:03 10° NNE 05:31:34 38° E 05:35:03 10° SSE visible
09 Dec ? 16:10:16 10° SE 16:13:37 35° ENE 16:17:02 10° N visible
09 Dec ? 17:44:31 10° SW 17:47:24 22° W 17:50:19 10° NW visible
10 Dec ? 05:07:25 10° NE 05:10:28 23° E 05:13:30 10° SSE visible
10 Dec ? 15:49:53 10° ESE 15:52:48 23° ENE 15:55:43 10° NNE visible
10 Dec ? 17:22:54 10° SSW 17:26:17 35° W 17:29:43 10° NNW visible
11 Dec ? 04:47:09 10° NE 04:49:19 15° E 04:51:27 10° SE visible
11 Dec ? 06:19:40 10° N 06:23:19 55° WNW 06:26:56 10° SSW visible
11 Dec ? 17:01:37 10° S 17:05:15 61° W 17:08:56 10° NNW visible
12 Dec ? 05:58:38 10° NNE 06:02:22 86° ESE 06:06:04 10° SSW visible
12 Dec ? 16:40:36 10° SSE 16:44:15 77° ENE 16:47:58 10° N visible
12 Dec ? 18:17:33 10° W 18:18:26 11° W 18:19:19 10° WNW visible
13 Dec ? 05:37:43 10° NNE 05:41:21 49° E 05:44:56 10° S visible
13 Dec ? 16:19:48 10° SE 16:23:19 45° ENE 16:26:53 10° N visible
13 Dec ? 17:54:42 10° SW 17:57:13 17° W 17:59:47 10° NW visible
14 Dec ? 05:16:58 10° NNE 05:20:16 29° E 05:23:32 10° SSE visible
14 Dec ? 15:59:17 10° SE 16:02:27 28° ENE 16:05:39 10° N visible
14 Dec ? 17:32:51 10° SSW 17:36:04 28° W 17:39:20 10° NW visible
15 Dec ? 04:56:29 10° NE 04:59:08 18° E 05:01:45 10° SE visible
15 Dec ? 06:29:28 10° N 06:33:00 43° WNW 06:36:31 10° SW visible
15 Dec ? 17:11:25 10° S 17:14:59 47° W 17:18:35 10° NNW visible
16 Dec ? 04:36:45 10° ENE 04:37:55 11° E 04:39:05 10° ESE visible
16 Dec ? 06:08:21 10° N 06:12:04 74° WNW 06:15:45 10° SSW visible
16 Dec ? 16:50:16 10° SSE 16:53:57 83° WSW 16:57:41 10° NNW visible
17 Dec ? 05:47:22 10° NNE 05:51:04 64° ESE 05:54:44 10° S visible
17 Dec ? 16:29:22 10° SSE 16:32:59 57° ENE 16:36:39 10° N visible
17 Dec ? 18:04:58 10° WSW 18:07:00 14° W 18:09:03 10° NW visible
18 Dec ? 05:26:32 10° NNE 05:30:01 37° E 05:33:27 10° SSE visible
18 Dec ? 16:08:43 10° SE 16:12:04 34° ENE 16:15:28 10° N visible
18 Dec ? 17:42:51 10° SSW 17:45:49 23° W 17:48:49 10° NW visible
